Location: McFarlands Corners
(41.4117°N, 81.3382°W)
Time: 15:03:36
(UTC+00:00)

Transit 2A - Pass Details

Date: 21 February 2026
Orbit: 590 x 954 km, 66.7° (Epoch: 7 March)

Event Time Altitude Azimuth Distance (km) Brightness Sun altitude
Rises 23:23:27 0° 339° (NNW) 3,601 9.6 -3.9°
Maximum altitude 23:29:54 10° 27° (NNE) 2,568 8.4 -5.1°
Drops below altitude 10° 23:29:58 10° 28° (NNE) 2,567 8.4 -5.1°
Enters shadow 23:33:52 - 62° (ENE) 2,916 8.4 -5.8°
